Back to catalog

SL-16 DEB

AliveLEO
NORAD 22395·DEBRIS·🇷🇺 Russia

Launched Dec 25, 1992 from Baikonur Cosmodrome

Loading…

Next Passes (next 24 hours)

TLE

FreshSource: Space-Track

Epoch: Sep 13, 2026, 12:13 UTC

1 22395U 92093CL  26256.50944412  .00005420  00000-0  11062-2 0  9997
2 22395  71.1342 282.7960 0049906 253.1609 225.2583 14.60567275734193

Track SL-16 DEB in real time with AllMySat

Download on the App Store